[[{"header":{"parameterUnit":"m.s-1","parameterCategory":1,"la1":30.2991,"la2":30.254,"lo1":-89.0895,"lo2":-89.0444,"dy":0.0017,"dx":0.0017,"nx":28,"ny":28,"refTime":"2024-06-23T03:00:00:Z","depth":0,"parameterNumber":2,"parameterNumberName":"U-component_of_WINDS"},"data":[0,0,0,0,0,0,0,0,0,0,0,0,0,0,0,0,0,0,0,0,0,0,0,0,0,0,0,0,0,0,0,0,0,0,0,0,0,0,0,0,0,0,0,0,0,0,0,0,0,0,0,0,0,0,0,0,0,0,1.0139,1.014,0,1.0237,1.0238,1.0239,1.0288,1.0288,1.0288,1.0289,1.0386,1.0389,1.0391,0,0,0,0,0,0,0,0,0,0,0,0,0,0.9992,0.9994,1.0139,1.014,1.0142,1.0237,1.0238,1.0239,1.0288,1.0288,1.0288,1.0289,1.0386,1.0389,1.0392,0,0,0,0,0,0,0,0,0,0,0,0,0,1.0069,0.9995,1.0139,1.0178,1.0182,1.0236,1.0238,1.024,1.0288,1.0288,1.0288,1.0289,1.0385,1.0388,1.0392,1.0415,0,0,1.0404,1.0406,0,0,0,0,0,0,0,0,1.0065,1.0075,1.0171,1.0175,1.018,1.0251,1.0222,1.0298,1.0288,1.0248,1.0289,1.0289,1.0341,1.0348,1.0367,1.0419,1.0424,1.0404,1.0407,1.0408,1.0409,0,0,0,0,0,0,0,1.0059,1.0071,1.0178,1.0172,1.0178,1.0189,1.02,1.0237,1.0293,1.0251,1.0255,1.0266,1.0344,1.0363,1.0369,1.0425,1.0404,1.0408,1.041,1.0412,1.05,1.05,0,0,0,0,0,0,1.0048,1.0066,1.0175,1.0181,1.0122,1.0192,1.0204,1.0228,1.0293,1.0303,1.0266,1.0268,1.0356,1.0365,1.0373,1.0403,1.0408,1.0412,1.0414,1.05,1.05,1.05,0,0,0,0,0,0,1.0045,1.0057,1.0171,1.0124,1.014,1.0194,1.022,1.023,1.0249,1.0304,1.0314,1.0276,1.0357,1.0367,1.0404,1.0407,1.0414,1.0417,1.05,1.05,1.05,1.0464,0,0,0,0,0,0,1.004,1.0056,1.0066,1.0124,1.0142,1.0201,1.0221,1.0232,1.0256,1.0259,1.0315,1.0325,1.0357,1.0398,1.0408,1.0413,1.042,1.05,1.05,1.05,1.0466,1.0463,1.0461,0,0,0,0,0,1.0035,1.0052,1.0066,1.0079,1.0156,1.0201,1.0211,1.0249,1.0256,1.0266,1.0301,1.0323,1.0405,1.0401,1.0413,1.0419,1.05,1.05,1.05,1.0466,1.0464,1.0461,0,0,0,0,0,0,0.9992,1.006,1.0077,1.0113,1.0151,1.0209,1.0223,1.0245,1.0281,1.0283,1.0328,1.034,1.0372,1.0399,1.0394,1.0444,1.0455,1.0457,1.0425,1.0423,1.0421,1.0414,1.0423,0,0,0,0,0,0.9987,1.0019,1.0076,1.0102,1.0121,1.0168,1.019,1.0215,1.0256,1.0272,1.031,1.0348,1.0382,1.0404,1.0439,1.0469,1.0482,1.0479,1.0477,1.0475,1.0477,1.0494,1.0493,1.0501,1.0501,1.0501,0,0,0.9976,1.0017,1.0035,1.0095,1.0127,1.0158,1.0182,1.0214,1.0237,1.0277,1.0314,1.0342,1.0388,1.0421,1.0438,1.0445,1.0477,1.0475,1.0473,1.0476,1.0494,1.0493,1.0492,1.0501,1.0501,1.0501,0,0,0.9973,1.0007,1.0033,1.0065,1.0114,1.0145,1.0151,1.0206,1.0227,1.0264,1.0295,1.0322,1.0381,1.0412,1.0435,1.0442,1.0463,1.0452,1.0441,1.0457,1.0456,1.0456,1.0458,1.0458,1.0453,1.0453,1.0453,0,0.9953,1.0002,1.0043,1.0074,1.0099,1.0136,1.0162,1.019,1.0247,1.0263,1.027,1.0344,1.0377,1.0418,1.0419,1.0437,1.0445,1.0446,1.0453,1.0453,1.0454,1.0456,1.0456,1.0451,1.0451,1.0452,1.0452,0,0.9976,1.0009,1.0024,1.0078,1.0105,1.0133,1.0176,1.0198,1.0221,1.0251,1.0289,1.033,1.0373,1.0384,1.0407,1.0428,1.0431,1.0445,1.0457,1.045,1.0453,1.0455,1.0449,1.0449,1.045,1.045,0,0,0.9949,1.0025,1.003,1.0055,1.0111,1.0137,1.0165,1.0208,1.0226,1.0263,1.0288,1.0336,1.0349,1.0375,1.0402,1.0416,1.0418,1.0429,1.043,1.0425,1.0442,1.0431,1.0432,1.0432,1.0433,1.0433,1.0438,0,0.9953,1.0008,1.0045,1.0084,1.0115,1.015,1.0175,1.0211,1.024,1.0269,1.0301,1.0334,1.0349,1.0365,1.0381,1.0414,1.0422,1.0414,1.0455,1.0456,1.0442,1.0433,1.0422,1.0425,1.044,1.044,1.044,0,0.9966,1.0003,1.0046,1.0098,1.0112,1.0134,1.0175,1.0203,1.0244,1.0264,1.0293,1.032,1.035,1.0359,1.0401,1.0395,1.0414,1.0432,1.0433,1.0439,1.0448,1.0438,1.0428,1.0428,1.0442,1.0442,1.0442,0,0.9942,1.0002,1.0036,1.0056,1.0117,1.0131,1.0157,1.0199,1.0222,1.0258,1.0273,1.0311,1.0332,1.0361,1.0397,1.04,1.0435,1.0447,1.0452,1.0451,1.0458,1.0457,1.045,1.047,1.047,1.047,1.047,0,0.9943,0.9968,1.0025,1.0046,1.0074,1.0115,1.0141,1.017,1.0206,1.0232,1.0265,1.0288,1.0334,1.0363,1.0391,1.0421,1.043,1.0446,1.0453,1.0443,1.0441,1.0456,1.0457,1.047,1.047,1.047,1.047,0,0.9921,0.9961,0.9999,1.0054,1.0068,1.0086,1.0133,1.0153,1.0183,1.0215,1.0225,1.0271,1.0307,1.0345,1.0393,1.0412,1.044,1.0451,1.0426,1.0431,1.0433,1.0432,1.0435,1.0437,1.0455,1.0455,1.0455,0,0.992,0.9939,0.9996,1.0016,1.0041,1.0073,1.0096,1.0137,1.016,1.0208,1.0222,1.0259,1.0292,1.0346,1.0383,1.042,1.0431,1.043,1.0437,1.0426,1.0431,1.0429,1.0431,1.0428,1.0427,1.0427,1.0427,0,0.9912,0.993,0.9964,1.0004,1.0031,1.0064,1.0098,1.0112,1.0159,1.0183,1.022,1.0245,1.0293,1.033,1.0371,1.0396,1.0419,1.0424,1.0427,1.0417,1.0402,1.041,1.042,1.0424,1.0424,1.0424,1.0425,1.0425,0.99,0.9919,0.9962,0.9997,1.0027,1.0058,1.008,1.0112,1.0144,1.0187,1.0209,1.0244,1.0284,1.0341,1.0366,1.0394,1.0401,1.0405,1.0407,1.0407,1.0404,1.0397,1.0401,1.0402,1.0402,1.0402,1.0402,0,0.9894,0.9923,0.9955,1.0002,1.003,1.0049,1.0088,1.0109,1.0141,1.0176,1.0207,1.0248,1.0283,1.0323,1.036,1.0375,1.0386,1.0383,1.0382,1.0388,1.0396,1.0389,1.0373,1.0373,1.0373,1.0373,1.0373,1.0373,0.9894,0.9927,0.995,0.9997,1.0026,1.0062,1.0082,1.011,1.0139,1.0183,1.0213,1.0239,1.0275,1.0315,1.0348,1.0359,1.0371,1.0365,1.0379,1.0385,1.0387,1.039,1.0384,1.0367,1.0367,1.0369,1.0369,1.0369]},{"header":{"parameterUnit":"m.s-1","parameterCategory":1,"la1":30.2991,"la2":30.254,"lo1":-89.0895,"lo2":-89.0444,"dy":0.0017,"dx":0.0017,"nx":28,"ny":28,"refTime":"2024-06-23T03:00:00:Z","depth":0,"parameterNumber":3,"parameterNumberName":"V-component_of_WINDS"},"data":[0,0,0,0,0,0,0,0,0,0,0,0,0,0,0,0,0,0,0,0,0,0,0,0,0,0,0,0,0,0,0,0,0,0,0,0,0,0,0,0,0,0,0,0,0,0,0,0,0,0,0,0,0,0,0,0,0,0,3.4942,3.4941,0,3.489,3.4889,3.4889,3.4867,3.4867,3.4867,3.4867,3.4808,3.4806,3.4805,0,0,0,0,0,0,0,0,0,0,0,0,0,3.5017,3.5016,3.4942,3.4941,3.494,3.489,3.4889,3.4888,3.4867,3.4867,3.4867,3.4867,3.4808,3.4806,3.4804,0,0,0,0,0,0,0,0,0,0,0,0,0,3.4977,3.5015,3.4942,3.4924,3.4922,3.489,3.4889,3.4888,3.4867,3.4867,3.4867,3.4867,3.4809,3.4807,3.4804,3.4785,0,0,3.4796,3.4795,0,0,0,0,0,0,0,0,3.4979,3.4974,3.4927,3.4925,3.4922,3.4885,3.4894,3.4853,3.4867,3.4887,3.4867,3.4867,3.4833,3.4829,3.4818,3.4782,3.478,3.4796,3.4795,3.4794,3.4793,0,0,0,0,0,0,0,3.4982,3.4976,3.4921,3.4926,3.4923,3.4916,3.4911,3.4886,3.486,3.4885,3.4884,3.4878,3.4832,3.4821,3.4817,3.4779,3.4796,3.4794,3.4792,3.4791,3.4724,3.4724,0,0,0,0,0,0,3.4988,3.4978,3.4923,3.4919,3.4952,3.4915,3.4909,3.4897,3.486,3.4855,3.4878,3.4877,3.4825,3.482,3.4814,3.479,3.4794,3.4791,3.479,3.4725,3.4724,3.4724,0,0,0,0,0,0,3.499,3.4984,3.4925,3.4948,3.494,3.4914,3.49,3.4896,3.4885,3.4854,3.4849,3.4872,3.4825,3.4818,3.4793,3.4787,3.479,3.4788,3.4725,3.4725,3.4724,3.474,0,0,0,0,0,0,3.4992,3.4984,3.4978,3.4949,3.4939,3.4906,3.49,3.4894,3.4881,3.488,3.4847,3.4842,3.4824,3.4797,3.479,3.4784,3.4786,3.4725,3.4725,3.4724,3.474,3.474,3.4741,0,0,0,0,0,3.4995,3.4983,3.4978,3.4971,3.4931,3.4905,3.49,3.4882,3.4881,3.4873,3.4854,3.4843,3.4789,3.4794,3.4787,3.478,3.4726,3.4725,3.4724,3.474,3.474,3.4741,0,0,0,0,0,0,3.501,3.4979,3.4973,3.4951,3.4932,3.4902,3.4892,3.4883,3.4861,3.486,3.4837,3.483,3.4807,3.479,3.4797,3.4759,3.4756,3.4754,3.4771,3.4771,3.4771,3.4775,3.4784,0,0,0,0,0,3.5012,3.4995,3.4968,3.4952,3.4942,3.4919,3.4907,3.4895,3.4873,3.4864,3.4842,3.482,3.4797,3.4783,3.4761,3.4738,3.473,3.4729,3.4729,3.473,3.4728,3.4714,3.4713,3.4722,3.4722,3.4722,0,0,3.5013,3.4994,3.4985,3.4954,3.4937,3.4919,3.4912,3.4893,3.4879,3.486,3.4836,3.4819,3.4792,3.4768,3.4756,3.4754,3.4724,3.4729,3.473,3.4727,3.4713,3.4713,3.4712,3.4722,3.4722,3.4722,0,0,3.5007,3.4992,3.4976,3.496,3.4936,3.4921,3.4917,3.4889,3.4878,3.4854,3.4839,3.4821,3.4784,3.4765,3.4751,3.4739,3.4728,3.4732,3.4734,3.4721,3.472,3.4719,3.4714,3.4713,3.4731,3.4731,3.4731,0,3.5012,3.4986,3.4969,3.4952,3.4938,3.4923,3.4906,3.4891,3.486,3.485,3.4848,3.4802,3.4782,3.4753,3.4751,3.474,3.4734,3.4736,3.4722,3.4721,3.472,3.4715,3.4713,3.4731,3.4731,3.4731,3.4731,0,3.4993,3.4975,3.4965,3.4938,3.4924,3.4907,3.4886,3.4873,3.4862,3.4847,3.4822,3.4798,3.4771,3.4764,3.4752,3.4733,3.4732,3.4727,3.4723,3.472,3.4715,3.4713,3.4732,3.4732,3.4732,3.4732,0,0,3.4994,3.4959,3.4956,3.4943,3.4915,3.49,3.4882,3.4858,3.4847,3.4826,3.481,3.4779,3.4774,3.4758,3.4744,3.4732,3.4724,3.4728,3.4727,3.4728,3.4701,3.4706,3.4704,3.4717,3.4717,3.4716,3.4703,0,3.4984,3.4953,3.4938,3.4913,3.4896,3.4881,3.4865,3.4846,3.4831,3.4813,3.4795,3.4774,3.4769,3.4759,3.4747,3.4728,3.4718,3.4728,3.47,3.4699,3.4707,3.4701,3.4706,3.4695,3.4701,3.4701,3.4701,0,3.4968,3.495,3.4924,3.4899,3.4891,3.4877,3.4854,3.4837,3.4814,3.4804,3.4787,3.4774,3.4753,3.4752,3.4722,3.4729,3.4716,3.4705,3.4704,3.47,3.4699,3.4697,3.4691,3.4689,3.4698,3.4698,3.4698,0,3.4971,3.494,3.492,3.491,3.488,3.4871,3.4858,3.4835,3.4822,3.4801,3.4792,3.4768,3.4755,3.4736,3.4716,3.4717,3.4688,3.4685,3.4677,3.4678,3.4671,3.4672,3.4663,3.4664,3.4664,3.4664,3.4664,0,3.4961,3.4946,3.4922,3.491,3.4892,3.4874,3.4856,3.4841,3.4821,3.4805,3.479,3.4775,3.475,3.4731,3.4715,3.4692,3.4686,3.4676,3.4672,3.4678,3.4679,3.4668,3.4668,3.4664,3.4664,3.4664,3.4664,0,3.4962,3.4945,3.4923,3.4897,3.489,3.4878,3.4855,3.4842,3.4827,3.4807,3.4801,3.4776,3.4753,3.4732,3.4701,3.469,3.4667,3.4662,3.4675,3.4673,3.4667,3.4668,3.465,3.4647,3.4651,3.4651,3.4651,0,3.4956,3.4945,3.4918,3.4907,3.4895,3.4877,3.4864,3.4846,3.4832,3.4806,3.4796,3.4772,3.4753,3.4716,3.4694,3.467,3.4664,3.466,3.466,3.4666,3.4664,3.4664,3.4663,3.466,3.466,3.466,3.466,0,3.4948,3.4941,3.4924,3.4904,3.4889,3.4872,3.4854,3.4845,3.4823,3.4808,3.4786,3.4771,3.474,3.4716,3.469,3.4674,3.4663,3.466,3.4657,3.4662,3.467,3.4666,3.4676,3.4661,3.4661,3.466,3.466,3.466,3.4945,3.4934,3.4915,3.4896,3.4881,3.4865,3.4851,3.4836,3.4817,3.4792,3.4782,3.4759,3.4736,3.47,3.4685,3.4665,3.4663,3.4658,3.4657,3.4656,3.4657,3.4674,3.466,3.466,3.466,3.466,3.466,0,3.4936,3.4923,3.4906,3.4883,3.4868,3.4861,3.4841,3.4828,3.4809,3.479,3.4771,3.4745,3.4722,3.47,3.4675,3.4664,3.4658,3.4658,3.4658,3.4655,3.4661,3.4666,3.4663,3.4663,3.4663,3.4663,3.4663,3.4663,3.493,3.4911,3.4901,3.4875,3.4861,3.484,3.4829,3.4814,3.4798,3.4771,3.4753,3.4739,3.4717,3.4692,3.467,3.4664,3.4655,3.4656,3.4648,3.4654,3.4654,3.4654,3.4659,3.4655,3.4655,3.4644,3.4644,3.4644]}]]